Lid_Strength_Index
1 0 1 1 2 2 3 5 9 2 2 7 7 9 8 7 8 7 7 8 8 10 10 11 13 15 13 9 11 14 11 12 14 12 8 7 8 9 10 12 14 13 14 13
1 1 1 1 2 2 4 7 6 2 3 10 9 8 7 7 8 8 7 8 7 7 9 12 12 13 10 10 12 13 11 13 15 13 11 9 9 9 9 11 12 14 14 14
1 1 1 1 1 2 4 7 10 7 6 7 9 10 9 9 6 7 6 7 7 8 10 9 12 14 11 10 11 8 9 12 14 15 13 11 11 9 9 10 12 12 11 13
1 1 1 1 1 2 4 6 9 8 12 10 9 8 9 10 10 6 6 8 8 9 11 10 11 12 12 11 10 11 12 15 12 11 9 9 9 9 9 10 10 12 11 11
0 1 1 1 1 2 5 8 8 8 9 9 10 9 9 9 8 8 9 9 8 8 11 10 12 13 13 13 12 14 13 15 12 13 10 9 10 9 9 9 9 10 10 11
1 1 1 1 1 2 6 4 5 8 10 11 11 10 9 9 8 7 7 7 8 9 7 6 6 8 10 11 13 14 15 14 14 16 11 11 14 10 9 9 8 9 11 9
1 1 1 1 1 2 4 4 6 11 13 11 11 10 8 8 8 9 7 7 8 6 4 4 5 9 10 10 12 12 15 15 14 15 13 18 11 7 7 8 8 8 8 7
1 1 1 1 1 2 4 3 7 11 14 11 10 9 9 8 7 8 7 6 5 4 6 9 10 12 12 11 11 12 12 14 16 16 15 13 10 10 9 10 11 8 9 7
1 1 1 1 1 2 3 3 4 9 12 12 9 10 9 10 9 8 7 4 3 5 8 10 14 15 13 12 12 12 12 12 14 14 16 17 12 9 9 8 14 8 8 8
0 1 1 1 2 2 2 3 4 8 12 10 9 10 9 7 8 9 7 7 7 6 11 13 14 15 10 14 13 14 14 14 15 15 15 14 12 10 7 14 13 8 9 8
1 1 1 2 2 2 2 4 4 7 10 9 7 7 8 7 7 10 7 8 8 9 12 13 13 14 12 12 11 12 13 14 15 15 15 18 10 10 13 9 8 8 9 9
2 2 2 2 2 2 2 5 4 4 8 8 6 5 4 5 5 6 6 8 7 7 10 10 10 12 11 12 16 9 14 12 16 14 14 11 9 10 9 9 10 9 10 9
3 3 2 2 2 2 2 4 5 6 8 8 7 7 4 2 3 3 7 6 6 7 5 8 9 12 10 13 13 12 10 9 14 13 12 12 10 9 10 10 10 9 9 9
3 2 2 2 2 2 2 5 5 5 8 11 8 3 5 3 3 3 4 5 5 5 6 9 9 11 8 11 11 12 10 10 13 13 12 12 10 10 10 10 10 9 8 8
3 2 2 2 2 2 2 3 4 4 7 10 9 6 5 4 4 5 5 6 6 7 10 10 11 9 9 9 9 10 9 11 13 15 12 12 12 11 10 11 11 10 9 8
3 3 2 2 2 3 3 7 5 3 4 8 11 5 6 5 5 6 6 7 7 8 10 11 10 8 10 13 13 9 8 8 9 11 9 9 10 9 9 10 10 10 9 8
3 3 3 3 3 3 5 7 4 3 3 8 9 8 6 5 6 7 7 8 9 10 11 12 12 12 11 14 15 11 9 8 8 6 6 7 8 10 7 7 8 8 8 8
3 3 3 4 4 5 5 4 4 3 6 7 9 9 7 5 7 9 7 10 9 10 11 11 12 11 13 15 12 10 9 8 6 6 5 6 7 7 6 6 6 8 8 8
3 3 3 3 4 4 4 3 4 3 5 8 8 11 11 5 6 7 9 8 12 10 12 11 12 14 14 11 10 9 9 9 8 6 6 6 6 6 5 5 6 8 8 8
3 3 3 5 3 3 4 5 6 6 6 6 9 7 10 6 7 8 8 9 10 12 9 9 11 11 7 7 7 7 7 7 7 8 8 6 6 7 6 6 6 7 7 6
3 4 4 3 3 3 5 7 8 7 10 7 8 7 9 5 9 9 7 10 9 14 11 11 13 12 9 7 8 7 6 6 7 6 6 6 5 5 6 6 5 5 6 7
2 3 1 2 4 6 8 9 7 9 11 7 8 8 7 6 5 8 8 10 9 13 7 11 14 10 7 7 7 7 7 6 6 6 7 6 5 5 5 5 5 5 5 5
1 3 5 6 6 10 9 11 10 10 6 6 6 8 6 6 6 8 8 10 11 7 11 13 11 7 6 5 7 8 7 7 6 6 6 6 6 6 6 7 6 7 7 7
5 6 11 8 9 8 8 7 7 5 5 5 6 7 8 7 8 7 10 9 8 12 14 14 9 7 6 5 5 6 8 8 8 6 6 6 7 7 7 6 7 7 8 7
5 5 11 8 5 5 5 4 5 4 4 5 7 6 6 7 8 8 8 11 13 12 13 10 7 6 5 5 5 5 6 6 7 8 7 6 6 7 7 7 7 7 7 7
4 4 6 5 6 6 5 5 5 3 4 4 5 6 8 9 8 9 11 12 14 10 8 6 5 5 5 5 4 4 4 5 6 6 6 6 6 6 6 6 7 7 8 8
5 6 4 5 5 6 5 4 4 3 5 7 6 8 9 7 9 10 8 10 8 6 6 5 4 5 5 4 4 4 4 4 5 5 4 5 4 6 7 8 8 8 8 8